User: anonymous   Login
Location: Caltech
(34.1382°N, 118.1253°W)
Time: 22:57:37
(UTC-07:00)
Language:

Sapphire - Orbit

View from above orbital plane
View from above orbital plane
View from above satellite
View from above satellite

Ground track
Ground track

The orbit data is extracted from the following two-line orbital elements,

1 26932U 01043D   15243.54912015 -.00000000  00000-0  31866-4 0  9991
2 26932 067.0581 344.1435 0004129 270.9988 089.0640 14.30163414726610
Epoch (UTC): 31 August 2015 13:10:43
Eccentricity: 0.0004129
inclination: 67.0581°
perigee height: 788 km
apogee height: 794 km
right ascension of ascending node: 344.1435°
argument of perigee: 270.9988°
revolutions per day: 14.30163414
mean anomaly at epoch: 89.0640°
orbit number at epoch: 72661

The dashed part of the orbit path shows where the satellite is in the earth's shadow,  

DLR